WAT4046 NTAA-RJTT

Flight info

Callsign WAT4046
Flight time N/A
Altitude 32000
Route ARITI4W ARITI DCT TAF G224 GUTEL/N0496F340 G224 TUT B577 FA A584 UPDIX/N0491F360 A584 NI G223 RISBA/N0483F380 G223 BEGAD Y817 OLVEK Y824 AROSA
Aircraft A346/H-SDE2E3FGHIJ3J4J5M1RWXY/LB1D1

Departure

Time 2026-04-26 12:03
Airport Fa'a'ā International Airport (NTAA)

Arrival

Time N/A
Airport Tokyo Haneda International Airport (RJTT)
Time Latitude Longitude Altitude Speed Heading
2026-04-26 11:44 -17.55789 -149.60974 18 ft 0 kts 144°
2026-04-26 11:48 -17.55786 -149.60977 16 ft 3 kts 147°
2026-04-26 11:49 -17.55769 -149.60986 16 ft 4 kts 158°
2026-04-26 11:49 -17.55759 -149.60988 16 ft 4 kts 181°
2026-04-26 11:49 -17.55737 -149.60983 16 ft 4 kts 211°
2026-04-26 11:49 -17.55722 -149.60969 17 ft 1 kts 235°
2026-04-26 11:50 -17.55722 -149.60968 16 ft 0 kts 235°
2026-04-26 11:54 -17.55722 -149.60969 16 ft 0 kts 235°
2026-04-26 11:54 -17.55728 -149.60978 17 ft 3 kts 235°
2026-04-26 11:54 -17.55744 -149.61002 16 ft 5 kts 235°
2026-04-26 11:55 -17.55749 -149.61037 16 ft 6 kts 278°
2026-04-26 11:55 -17.55741 -149.61085 16 ft 7 kts 283°
2026-04-26 11:55 -17.55709 -149.61127 17 ft 8 kts 329°
2026-04-26 11:55 -17.55674 -149.61132 17 ft 8 kts 22°
2026-04-26 11:56 -17.55657 -149.61123 17 ft 8 kts 38°
2026-04-26 11:56 -17.55614 -149.61074 17 ft 10 kts 50°
2026-04-26 11:56 -17.55571 -149.61016 19 ft 10 kts 55°
2026-04-26 11:56 -17.55529 -149.60954 19 ft 11 kts 52°
2026-04-26 11:57 -17.55482 -149.60889 19 ft 12 kts 55°
2026-04-26 11:57 -17.55434 -149.60812 19 ft 13 kts 57°
2026-04-26 11:57 -17.55380 -149.60728 19 ft 14 kts 54°
2026-04-26 11:57 -17.55320 -149.60644 22 ft 15 kts 53°
2026-04-26 11:58 -17.55254 -149.60555 17 ft 16 kts 50°
2026-04-26 11:58 -17.55180 -149.60461 17 ft 17 kts 52°
2026-04-26 11:58 -17.55108 -149.60361 16 ft 17 kts 53°
2026-04-26 11:58 -17.55041 -149.60253 17 ft 18 kts 58°
2026-04-26 11:59 -17.54970 -149.60141 17 ft 18 kts 54°
2026-04-26 11:59 -17.54900 -149.60029 18 ft 18 kts 54°
2026-04-26 11:59 -17.54820 -149.59919 16 ft 19 kts 50°
2026-04-26 11:59 -17.54733 -149.59810 17 ft 20 kts 52°
2026-04-26 12:00 -17.54650 -149.59690 18 ft 21 kts 57°
2026-04-26 12:00 -17.54577 -149.59552 16 ft 22 kts 63°
2026-04-26 12:00 -17.54541 -149.59476 17 ft 2 kts 60°
2026-04-26 12:00 -17.54535 -149.59469 16 ft 1 kts 33°
2026-04-26 12:01 -17.54534 -149.59469 17 ft 0 kts 25°
2026-04-26 12:01 -17.54533 -149.59469 16 ft 0 kts 19°
2026-04-26 12:01 -17.54528 -149.59469 16 ft 1 kts 350°
2026-04-26 12:01 -17.54521 -149.59476 16 ft 2 kts 291°
2026-04-26 12:02 -17.54537 -149.59507 17 ft 19 kts 220°
2026-04-26 12:02 -17.54668 -149.59657 16 ft 67 kts 243°
2026-04-26 12:02 -17.55258 -149.60543 17 ft 153 kts 233°
2026-04-26 12:02 -17.55998 -149.61558 48 ft 189 kts 225°
2026-04-26 12:03 -17.56849 -149.62586 726 ft 180 kts 230°
2026-04-26 12:03 -17.57627 -149.63606 1136 ft 181 kts 247°
2026-04-26 12:03 -17.57711 -149.64898 1327 ft 180 kts 302°
2026-04-26 12:03 -17.56823 -149.65749 1556 ft 177 kts 344°
2026-04-26 12:04 -17.55601 -149.65970 1864 ft 183 kts 358°
2026-04-26 12:04 -17.54364 -149.66389 2097 ft 204 kts 321°
2026-04-26 12:04 -17.53664 -149.67740 2352 ft 227 kts 277°
2026-04-26 12:04 -17.53640 -149.69463 2688 ft 245 kts 269°
2026-04-26 12:05 -17.53692 -149.71340 3051 ft 262 kts 271°
2026-04-26 12:05 -17.53665 -149.73280 3506 ft 275 kts 274°
2026-04-26 12:05 -17.53561 -149.75324 4185 ft 277 kts 275°
2026-04-26 12:05 -17.53413 -149.77318 4898 ft 278 kts 276°
2026-04-26 12:06 -17.53234 -149.79345 5583 ft 280 kts 277°
2026-04-26 12:06 -17.53034 -149.81415 6228 ft 283 kts 277°
2026-04-26 12:06 -17.52825 -149.83478 6859 ft 285 kts 277°
2026-04-26 12:06 -17.52611 -149.85529 7464 ft 288 kts 277°
2026-04-26 12:07 -17.52385 -149.87658 8057 ft 291 kts 277°
2026-04-26 12:07 -17.52158 -149.89774 8648 ft 293 kts 277°
2026-04-26 12:07 -17.51928 -149.91908 9200 ft 296 kts 277°
2026-04-26 12:07 -17.51698 -149.94040 9722 ft 299 kts 277°
2026-04-26 12:08 -17.51461 -149.96214 10256 ft 302 kts 277°
2026-04-26 12:08 -17.51218 -149.98442 10552 ft 314 kts 277°
2026-04-26 12:08 -17.50963 -150.00776 10811 ft 328 kts 277°
2026-04-26 12:08 -17.50700 -150.03198 11066 ft 341 kts 277°
2026-04-26 12:09 -17.50424 -150.05724 11310 ft 355 kts 277°
2026-04-26 12:09 -17.50137 -150.08344 11562 ft 368 kts 277°
2026-04-26 12:09 -17.49840 -150.11060 11808 ft 382 kts 277°
2026-04-26 12:09 -17.49533 -150.13871 12123 ft 392 kts 277°
2026-04-26 12:10 -17.49220 -150.16727 12664 ft 396 kts 276°
2026-04-26 12:10 -17.48903 -150.19607 13265 ft 398 kts 276°
2026-04-26 12:10 -17.48585 -150.22501 13838 ft 401 kts 276°
2026-04-26 12:10 -17.48263 -150.25420 14394 ft 404 kts 276°
2026-04-26 12:11 -17.47939 -150.28356 14931 ft 407 kts 276°
2026-04-26 12:11 -17.47613 -150.31315 15452 ft 410 kts 276°
2026-04-26 12:11 -17.47283 -150.34293 15961 ft 413 kts 276°
2026-04-26 12:11 -17.46949 -150.37302 16456 ft 416 kts 276°
2026-04-26 12:12 -17.46614 -150.40326 16945 ft 419 kts 276°
2026-04-26 12:12 -17.46276 -150.43373 17431 ft 422 kts 276°
2026-04-26 12:12 -17.45935 -150.46441 17897 ft 425 kts 276°
2026-04-26 12:12 -17.45707 -150.48484 18203 ft 427 kts 276°
2026-04-26 12:13 -17.45244 -150.52637 18808 ft 430 kts 276°
2026-04-26 12:13 -17.44895 -150.55765 19235 ft 433 kts 276°
2026-04-26 12:13 -17.44543 -150.58917 19651 ft 436 kts 276°
2026-04-26 12:13 -17.44188 -150.62084 20057 ft 439 kts 276°
2026-04-26 12:14 -17.43952 -150.64198 20323 ft 441 kts 276°
2026-04-26 12:14 -17.43592 -150.67401 20712 ft 443 kts 276°
2026-04-26 12:14 -17.43229 -150.70622 21090 ft 446 kts 276°
2026-04-26 12:14 -17.42865 -150.73862 21452 ft 449 kts 276°
2026-04-26 12:15 -17.42497 -150.77125 21808 ft 452 kts 276°
2026-04-26 12:15 -17.42127 -150.80403 22155 ft 454 kts 276°
2026-04-26 12:15 -17.41753 -150.83700 22481 ft 457 kts 276°
2026-04-26 12:15 -17.41378 -150.87019 22817 ft 459 kts 276°
2026-04-26 12:16 -17.41000 -150.90349 23133 ft 462 kts 276°
2026-04-26 12:16 -17.40619 -150.93701 23451 ft 464 kts 275°
2026-04-26 12:16 -17.40235 -150.97066 23735 ft 467 kts 275°
2026-04-26 12:16 -17.39849 -151.00451 24022 ft 469 kts 275°
2026-04-26 12:17 -17.39461 -151.03856 24305 ft 471 kts 275°
2026-04-26 12:17 -17.39071 -151.07269 24589 ft 473 kts 275°
2026-04-26 12:17 -17.38677 -151.10710 24870 ft 476 kts 275°
2026-04-26 12:17 -17.38281 -151.14163 25147 ft 478 kts 275°
2026-04-26 12:18 -17.37883 -151.17627 25422 ft 480 kts 275°
2026-04-26 12:18 -17.37483 -151.21110 25695 ft 482 kts 275°
2026-04-26 12:18 -17.37080 -151.24607 25961 ft 484 kts 275°
2026-04-26 12:18 -17.36675 -151.28118 26228 ft 486 kts 275°
2026-04-26 12:19 -17.36267 -151.31647 26495 ft 488 kts 275°
2026-04-26 12:19 -17.35858 -151.35188 26759 ft 490 kts 275°
2026-04-26 12:19 -17.35445 -151.38747 27010 ft 493 kts 275°
2026-04-26 12:19 -17.35031 -151.42318 27271 ft 494 kts 275°
2026-04-26 12:20 -17.34614 -151.45905 27525 ft 496 kts 275°
2026-04-26 12:20 -17.34196 -151.49503 27775 ft 498 kts 275°
2026-04-26 12:20 -17.33774 -151.53121 28021 ft 501 kts 275°
2026-04-26 12:20 -17.33351 -151.56746 28278 ft 502 kts 275°
2026-04-26 12:21 -17.32926 -151.60385 28560 ft 503 kts 275°
2026-04-26 12:21 -17.32500 -151.64022 28920 ft 502 kts 275°
2026-04-26 12:21 -17.32073 -151.67651 29301 ft 501 kts 275°
2026-04-26 12:21 -17.31650 -151.71269 29666 ft 500 kts 275°
2026-04-26 12:22 -17.31230 -151.74887 30027 ft 499 kts 275°
2026-04-26 12:22 -17.30812 -151.78499 30350 ft 499 kts 275°
2026-04-26 12:22 -17.30395 -151.82110 30640 ft 500 kts 275°
2026-04-26 12:22 -17.29977 -151.85728 30897 ft 501 kts 275°
2026-04-26 12:23 -17.29556 -151.89364 31146 ft 502 kts 275°
2026-04-26 12:23 -17.29140 -151.92953 31402 ft 503 kts 275°
2026-04-26 12:23 -17.28710 -151.96645 31650 ft 504 kts 275°
2026-04-26 12:23 -17.28285 -152.00292 31914 ft 505 kts 275°
2026-04-26 12:24 -17.27858 -152.03952 32008 ft 507 kts 275°
2026-04-26 12:24 -17.26998 -152.11293 32014 ft 507 kts 275°
2026-04-26 12:25 -17.25710 -152.22248 32017 ft 507 kts 275°
2026-04-26 12:25 -17.24845 -152.29581 32017 ft 507 kts 275°
2026-04-26 12:26 -17.23976 -152.36920 32016 ft 507 kts 275°
2026-04-26 12:26 -17.23105 -152.44256 32016 ft 507 kts 275°
2026-04-26 12:27 -17.22232 -152.51588 32017 ft 507 kts 275°
2026-04-26 12:27 -17.21355 -152.58922 32016 ft 508 kts 275°
2026-04-26 12:28 -17.20476 -152.66259 32016 ft 508 kts 275°
2026-04-26 12:28 -17.19594 -152.73599 32017 ft 508 kts 275°
2026-04-26 12:29 -17.18709 -152.80939 32016 ft 508 kts 275°
2026-04-26 12:30 -17.17374 -152.91959 32016 ft 509 kts 275°
2026-04-26 12:30 -17.16481 -152.99309 32016 ft 509 kts 275°
2026-04-26 12:31 -17.15137 -153.10327 32016 ft 509 kts 275°
2026-04-26 12:31 -17.14237 -153.17675 32017 ft 509 kts 275°
2026-04-26 12:32 -17.13334 -153.25022 32017 ft 509 kts 275°
2026-04-26 12:33 -17.11974 -153.36052 32017 ft 509 kts 275°
2026-04-26 12:33 -17.11064 -153.43400 32017 ft 509 kts 275°
2026-04-26 12:34 -17.10153 -153.50744 32017 ft 509 kts 275°
2026-04-26 12:34 -17.09237 -153.58095 32017 ft 509 kts 275°
2026-04-26 12:35 -17.08320 -153.65442 32017 ft 509 kts 275°
2026-04-26 12:35 -17.07400 -153.72787 32024 ft 509 kts 275°
2026-04-26 12:36 -17.06476 -153.80142 32025 ft 509 kts 275°
2026-04-26 12:36 -17.05551 -153.87486 32026 ft 509 kts 275°
2026-04-26 12:37 -17.04623 -153.94830 32026 ft 509 kts 275°
2026-04-26 12:37 -17.03692 -154.02175 32026 ft 509 kts 275°
2026-04-26 12:38 -17.02759 -154.09521 32026 ft 509 kts 275°
2026-04-26 12:38 -17.01822 -154.16864 32026 ft 509 kts 275°
2026-04-26 12:39 -17.00884 -154.24201 32026 ft 509 kts 275°
2026-04-26 12:39 -16.99944 -154.31534 32026 ft 509 kts 275°
2026-04-26 12:40 -16.98999 -154.38877 32025 ft 509 kts 275°
2026-04-26 12:40 -16.98052 -154.46217 32026 ft 510 kts 275°
2026-04-26 12:41 -16.97103 -154.53563 32026 ft 509 kts 275°
2026-04-26 12:41 -16.96151 -154.60902 32026 ft 509 kts 275°
2026-04-26 12:42 -16.95195 -154.68246 32023 ft 509 kts 275°
2026-04-26 12:42 -16.94238 -154.75582 32018 ft 509 kts 275°
2026-04-26 12:43 -16.93278 -154.82921 32017 ft 509 kts 275°
2026-04-26 12:43 -16.92315 -154.90264 32017 ft 509 kts 275°
2026-04-26 12:44 -16.91349 -154.97604 32017 ft 509 kts 275°
2026-04-26 12:44 -16.90380 -155.04943 32016 ft 510 kts 276°
2026-04-26 12:45 -16.89414 -155.12249 32016 ft 510 kts 276°
2026-04-26 12:45 -16.88440 -155.19598 32017 ft 510 kts 276°
2026-04-26 12:46 -16.87463 -155.26934 32016 ft 510 kts 276°
2026-04-26 12:46 -16.86482 -155.34283 32016 ft 510 kts 276°
2026-04-26 12:47 -16.85500 -155.41620 32017 ft 510 kts 276°
2026-04-26 12:47 -16.84515 -155.48966 32016 ft 510 kts 276°
2026-04-26 12:48 -16.83527 -155.56312 32016 ft 510 kts 276°
2026-04-26 12:48 -16.82538 -155.63645 32017 ft 510 kts 276°
2026-04-26 12:49 -16.81544 -155.70991 32016 ft 510 kts 276°
2026-04-26 12:49 -16.80547 -155.78337 32016 ft 510 kts 276°
2026-04-26 12:50 -16.79555 -155.85633 32017 ft 510 kts 276°
2026-04-26 12:50 -16.78553 -155.92978 32017 ft 510 kts 276°
2026-04-26 12:51 -16.77549 -156.00323 32016 ft 510 kts 276°
2026-04-26 12:51 -16.76536 -156.07713 32016 ft 511 kts 276°
2026-04-26 12:52 -16.75532 -156.15015 32016 ft 511 kts 276°
2026-04-26 12:52 -16.74519 -156.22360 32017 ft 511 kts 276°
2026-04-26 12:53 -16.73504 -156.29705 32017 ft 511 kts 276°
2026-04-26 12:53 -16.72486 -156.37056 32017 ft 511 kts 276°
2026-04-26 12:54 -16.71465 -156.44400 32016 ft 511 kts 276°
2026-04-26 12:54 -16.70442 -156.51747 32017 ft 511 kts 276°
2026-04-26 12:55 -16.69416 -156.59089 32016 ft 511 kts 276°
2026-04-26 12:55 -16.68388 -156.66435 32016 ft 511 kts 276°
2026-04-26 12:56 -16.67358 -156.73774 32017 ft 511 kts 276°
2026-04-26 12:56 -16.66325 -156.81115 32017 ft 511 kts 276°
2026-04-26 12:57 -16.65291 -156.88449 32017 ft 510 kts 276°
2026-04-26 12:57 -16.64255 -156.95785 32016 ft 510 kts 276°
2026-04-26 12:58 -16.62896 -157.05543 32016 ft 510 kts 276°
2026-04-26 12:58 -16.61908 -157.12886 32017 ft 510 kts 276°
2026-04-26 12:59 -16.60918 -157.20223 32016 ft 510 kts 276°
2026-04-26 12:59 -16.59923 -157.27569 32017 ft 510 kts 276°
2026-04-26 13:00 -16.58926 -157.34904 32017 ft 510 kts 276°
2026-04-26 13:00 -16.57927 -157.42228 32020 ft 510 kts 276°
2026-04-26 13:01 -16.56922 -157.49568 32025 ft 510 kts 276°
2026-04-26 13:01 -16.55916 -157.56900 32026 ft 510 kts 276°
2026-04-26 13:02 -16.54908 -157.64234 32026 ft 510 kts 276°
2026-04-26 13:02 -16.53897 -157.71566 32026 ft 510 kts 276°
2026-04-26 13:03 -16.52883 -157.78899 32019 ft 510 kts 276°
2026-04-26 13:03 -16.51874 -157.86184 32017 ft 511 kts 276°
2026-04-26 13:04 -16.50855 -157.93523 32017 ft 511 kts 276°
2026-04-26 13:04 -16.49834 -158.00850 32016 ft 511 kts 276°
2026-04-26 13:05 -16.48809 -158.08186 32017 ft 510 kts 276°
2026-04-26 13:05 -16.47782 -158.15522 32016 ft 510 kts 276°
2026-04-26 13:06 -16.46752 -158.22853 32017 ft 510 kts 276°
2026-04-26 13:06 -16.45721 -158.30179 32016 ft 510 kts 276°
2026-04-26 13:07 -16.44687 -158.37506 32017 ft 511 kts 276°
2026-04-26 13:07 -16.43650 -158.44832 32017 ft 510 kts 276°
2026-04-26 13:08 -16.42611 -158.52159 32017 ft 510 kts 276°
2026-04-26 13:08 -16.41568 -158.59491 32016 ft 511 kts 276°
2026-04-26 13:09 -16.40523 -158.66820 32017 ft 511 kts 276°
2026-04-26 13:09 -16.39476 -158.74148 32017 ft 511 kts 276°
2026-04-26 13:10 -16.38428 -158.81469 32017 ft 510 kts 276°
2026-04-26 13:10 -16.37375 -158.88794 32017 ft 510 kts 276°
2026-04-26 13:11 -16.36321 -158.96108 32016 ft 510 kts 276°
2026-04-26 13:11 -16.35265 -159.03426 32011 ft 510 kts 276°
2026-04-26 13:12 -16.34206 -159.10744 32008 ft 510 kts 276°
2026-04-26 13:12 -16.33144 -159.18062 32007 ft 510 kts 276°
2026-04-26 13:13 -16.32079 -159.25384 32007 ft 511 kts 277°
2026-04-26 13:13 -16.31019 -159.32651 32007 ft 511 kts 277°
2026-04-26 13:14 -16.29948 -159.39975 32007 ft 511 kts 277°
2026-04-26 13:14 -16.28876 -159.47295 32007 ft 511 kts 277°
2026-04-26 13:15 -16.27802 -159.54612 32007 ft 510 kts 277°
2026-04-26 13:15 -16.26723 -159.61931 32007 ft 511 kts 277°
2026-04-26 13:16 -16.25641 -159.69260 32007 ft 512 kts 277°
2026-04-26 13:16 -16.24556 -159.76589 32007 ft 512 kts 277°
2026-04-26 13:17 -16.22926 -159.87580 32007 ft 511 kts 277°
2026-04-26 13:18 -16.21290 -159.98559 32007 ft 511 kts 277°
2026-04-26 13:19 -16.19654 -160.09497 32007 ft 511 kts 277°
2026-04-26 13:19 -16.18555 -160.16824 32007 ft 511 kts 277°
2026-04-26 13:20 -16.17455 -160.24142 32007 ft 511 kts 277°
2026-04-26 13:20 -16.16352 -160.31462 32007 ft 511 kts 277°
2026-04-26 13:21 -16.15247 -160.38780 32007 ft 511 kts 277°
2026-04-26 13:21 -16.14139 -160.46099 32007 ft 511 kts 277°
2026-04-26 13:22 -16.13028 -160.53418 32007 ft 511 kts 277°
2026-04-26 13:22 -16.11914 -160.60741 32007 ft 511 kts 277°
2026-04-26 13:23 -16.10800 -160.68052 32007 ft 511 kts 277°
2026-04-26 13:23 -16.09683 -160.75362 32007 ft 511 kts 277°
2026-04-26 13:24 -16.08562 -160.82677 32007 ft 511 kts 277°
2026-04-26 13:24 -16.07441 -160.89983 32007 ft 511 kts 277°
2026-04-26 13:25 -16.06317 -160.97290 32007 ft 511 kts 277°
2026-04-26 13:25 -16.05188 -161.04611 32012 ft 511 kts 278°
2026-04-26 13:26 -16.04059 -161.11913 32015 ft 511 kts 278°
2026-04-26 13:26 -16.02926 -161.19220 32016 ft 512 kts 278°
2026-04-26 13:27 -16.01797 -161.26490 32016 ft 512 kts 278°
2026-04-26 13:27 -16.00660 -161.33799 32016 ft 512 kts 278°
2026-04-26 13:28 -15.99520 -161.41102 32016 ft 512 kts 278°
2026-04-26 13:28 -15.98374 -161.48436 32016 ft 513 kts 278°
2026-04-26 13:29 -15.97225 -161.55765 32016 ft 513 kts 278°
2026-04-26 13:29 -15.96072 -161.63097 32017 ft 513 kts 278°
2026-04-26 13:30 -15.94918 -161.70424 32010 ft 513 kts 278°
2026-04-26 13:30 -15.93762 -161.77749 32008 ft 513 kts 278°
2026-04-26 13:31 -15.92603 -161.85071 32008 ft 513 kts 278°
2026-04-26 13:31 -15.91442 -161.92393 32007 ft 513 kts 278°
2026-04-26 13:32 -15.90279 -161.99713 32007 ft 513 kts 278°
2026-04-26 13:32 -15.89114 -162.07034 32007 ft 513 kts 278°
2026-04-26 13:33 -15.87946 -162.14348 32007 ft 513 kts 278°
2026-04-26 13:33 -15.86776 -162.21668 32007 ft 513 kts 278°
2026-04-26 13:34 -15.85604 -162.28980 32007 ft 513 kts 278°
2026-04-26 13:34 -15.84429 -162.36289 32007 ft 513 kts 278°
2026-04-26 13:35 -15.83249 -162.43618 32007 ft 513 kts 278°
2026-04-26 13:35 -15.82067 -162.50944 32007 ft 513 kts 278°
2026-04-26 13:36 -15.80882 -162.58270 32007 ft 513 kts 278°
2026-04-26 13:36 -15.79695 -162.65592 32007 ft 514 kts 278°
2026-04-26 13:37 -15.78505 -162.72921 32007 ft 514 kts 278°
2026-04-26 13:37 -15.77314 -162.80243 32007 ft 514 kts 278°
2026-04-26 13:38 -15.76119 -162.87568 32007 ft 514 kts 278°
2026-04-26 13:38 -15.74920 -162.94901 32007 ft 514 kts 278°
2026-04-26 13:39 -15.73721 -163.02222 32007 ft 514 kts 278°
2026-04-26 13:39 -15.72518 -163.09549 32007 ft 514 kts 278°
2026-04-26 13:40 -15.71322 -163.16821 32007 ft 514 kts 278°
2026-04-26 13:40 -15.70113 -163.24145 32007 ft 514 kts 278°
2026-04-26 13:41 -15.68904 -163.31469 32007 ft 514 kts 278°
2026-04-26 13:41 -15.67691 -163.38791 32007 ft 514 kts 278°
2026-04-26 13:42 -15.66474 -163.46124 32007 ft 514 kts 278°
2026-04-26 13:42 -15.65258 -163.53438 32007 ft 514 kts 278°
2026-04-26 13:43 -15.64039 -163.60755 32007 ft 514 kts 278°
2026-04-26 13:43 -15.62817 -163.68070 32007 ft 514 kts 278°
2026-04-26 13:44 -15.61592 -163.75390 32007 ft 514 kts 278°
2026-04-26 13:44 -15.60364 -163.82715 32007 ft 514 kts 278°
2026-04-26 13:45 -15.59134 -163.90035 32007 ft 514 kts 278°
2026-04-26 13:45 -15.58111 -163.96113 32007 ft 514 kts 278°
2026-04-26 13:46 -15.56877 -164.03426 32007 ft 514 kts 278°
2026-04-26 13:46 -15.55641 -164.10740 32007 ft 514 kts 278°
2026-04-26 13:47 -15.54401 -164.18060 32007 ft 514 kts 278°
2026-04-26 13:47 -15.53160 -164.25377 32007 ft 514 kts 278°
2026-04-26 13:48 -15.51916 -164.32685 32007 ft 514 kts 278°
2026-04-26 13:48 -15.50672 -164.39988 32007 ft 514 kts 278°
2026-04-26 13:49 -15.49423 -164.47298 32007 ft 514 kts 278°
2026-04-26 13:49 -15.48172 -164.54610 32007 ft 514 kts 278°
2026-04-26 13:50 -15.46919 -164.61917 32007 ft 514 kts 279°
2026-04-26 13:50 -15.45664 -164.69227 32007 ft 514 kts 279°
2026-04-26 13:51 -15.44406 -164.76536 32007 ft 514 kts 279°
2026-04-26 13:51 -15.43145 -164.83848 32007 ft 515 kts 279°
2026-04-26 13:52 -15.41882 -164.91162 32007 ft 515 kts 279°
2026-04-26 13:52 -15.40616 -164.98477 32008 ft 514 kts 279°
2026-04-26 13:53 -15.39346 -165.05779 32007 ft 514 kts 279°
2026-04-26 13:53 -15.38074 -165.13076 32007 ft 514 kts 279°
2026-04-26 13:54 -15.36801 -165.20378 32007 ft 514 kts 279°
2026-04-26 13:54 -15.35527 -165.27678 32008 ft 514 kts 279°
2026-04-26 13:55 -15.33829 -165.37386 32007 ft 513 kts 279°
2026-04-26 13:56 -15.31693 -165.49553 32007 ft 513 kts 279°
2026-04-26 13:56 -15.30411 -165.56839 32007 ft 513 kts 279°
2026-04-26 13:57 -15.29127 -165.64124 32007 ft 513 kts 279°
2026-04-26 13:57 -15.27841 -165.71408 32007 ft 513 kts 279°
2026-04-26 13:58 -15.26552 -165.78692 32007 ft 513 kts 279°
2026-04-26 13:58 -15.25260 -165.85976 32007 ft 513 kts 279°
2026-04-26 13:59 -15.23966 -165.93259 32007 ft 513 kts 279°
2026-04-26 13:59 -15.22670 -166.00541 32007 ft 514 kts 279°
2026-04-26 14:00 -15.20070 -166.15101 32007 ft 513 kts 279°
2026-04-26 14:01 -15.18768 -166.22378 32007 ft 513 kts 279°
2026-04-26 14:01 -15.17462 -166.29656 32007 ft 513 kts 279°
2026-04-26 14:02 -15.16154 -166.36935 32007 ft 513 kts 279°
2026-04-26 14:02 -15.14845 -166.44211 32007 ft 513 kts 279°
2026-04-26 14:03 -15.13532 -166.51486 32007 ft 513 kts 279°
2026-04-26 14:03 -15.12217 -166.58763 32007 ft 513 kts 279°
2026-04-26 14:04 -15.10898 -166.66045 32007 ft 514 kts 279°
2026-04-26 14:04 -15.09576 -166.73331 32007 ft 514 kts 279°
2026-04-26 14:05 -15.08253 -166.80610 32007 ft 514 kts 279°
2026-04-26 14:05 -15.06927 -166.87894 32007 ft 514 kts 279°
2026-04-26 14:06 -15.05599 -166.95172 32007 ft 514 kts 279°
2026-04-26 14:06 -15.04278 -167.02398 32007 ft 514 kts 279°
2026-04-26 14:07 -15.02947 -167.09669 32007 ft 514 kts 279°
2026-04-26 14:07 -15.01612 -167.16941 32007 ft 514 kts 279°
2026-04-26 14:08 -15.00274 -167.24222 32007 ft 514 kts 279°
2026-04-26 14:08 -14.98935 -167.31492 32007 ft 514 kts 279°
2026-04-26 14:09 -14.97593 -167.38766 32007 ft 514 kts 279°
2026-04-26 14:09 -14.96250 -167.46035 32007 ft 514 kts 279°
2026-04-26 14:10 -14.94903 -167.53307 32007 ft 514 kts 279°
2026-04-26 14:10 -14.93555 -167.60572 32007 ft 514 kts 279°
2026-04-26 14:11 -14.91528 -167.71476 32007 ft 514 kts 279°
2026-04-26 14:11 -14.90174 -167.78741 32007 ft 514 kts 279°
2026-04-26 14:12 -14.88818 -167.86008 32007 ft 514 kts 279°
2026-04-26 14:12 -14.87458 -167.93278 32007 ft 514 kts 279°
2026-04-26 14:13 -14.85416 -168.04171 32007 ft 514 kts 279°
2026-04-26 14:14 -14.84054 -168.11424 32007 ft 513 kts 280°
2026-04-26 14:14 -14.82687 -168.18681 32007 ft 513 kts 280°
2026-04-26 14:15 -14.81320 -168.25931 32007 ft 513 kts 280°
2026-04-26 14:15 -14.79952 -168.33179 32007 ft 513 kts 280°
2026-04-26 14:16 -14.78579 -168.40434 32006 ft 513 kts 280°
2026-04-26 14:16 -14.77204 -168.47686 32002 ft 513 kts 280°
2026-04-26 14:17 -14.75827 -168.54938 31998 ft 513 kts 280°
2026-04-26 14:17 -14.74448 -168.62190 31997 ft 513 kts 280°
2026-04-26 14:18 -14.73068 -168.69433 31993 ft 513 kts 280°
2026-04-26 14:18 -14.71687 -168.76670 32000 ft 513 kts 280°
2026-04-26 14:19 -14.70304 -168.83906 31996 ft 513 kts 280°
2026-04-26 14:19 -14.68918 -168.91145 32000 ft 513 kts 280°
2026-04-26 14:20 -14.67530 -168.98384 32000 ft 513 kts 280°
2026-04-26 14:20 -14.66135 -169.05612 32000 ft 513 kts 280°
2026-04-26 14:21 -14.64717 -169.12843 32000 ft 513 kts 280°
2026-04-26 14:21 -14.63300 -169.20068 32000 ft 513 kts 280°
2026-04-26 14:22 -14.61880 -169.27303 31995 ft 513 kts 280°
2026-04-26 14:22 -14.60470 -169.34481 31999 ft 513 kts 280°
2026-04-26 14:23 -14.59047 -169.41716 31999 ft 513 kts 281°
2026-04-26 14:23 -14.57612 -169.48998 31999 ft 513 kts 281°
2026-04-26 14:24 -14.56194 -169.56182 31996 ft 513 kts 281°
2026-04-26 14:24 -14.54765 -169.63412 31999 ft 513 kts 281°
2026-04-26 14:25 -14.53332 -169.70647 31999 ft 513 kts 281°
2026-04-26 14:25 -14.51898 -169.77875 32000 ft 513 kts 281°
2026-04-26 14:26 -14.50461 -169.85107 32000 ft 513 kts 281°
2026-04-26 14:26 -14.49023 -169.92334 31994 ft 513 kts 281°
2026-04-26 14:27 -14.47583 -169.99556 32000 ft 513 kts 281°
2026-04-26 14:27 -14.46143 -170.06773 32000 ft 513 kts 281°
2026-04-26 14:28 -14.44698 -170.13993 32000 ft 513 kts 281°
2026-04-26 14:28 -14.43252 -170.21210 32000 ft 513 kts 281°
2026-04-26 14:29 -14.42048 -170.27207 32000 ft 513 kts 281°
2026-04-26 14:29 -14.40598 -170.34423 32000 ft 513 kts 281°
2026-04-26 14:30 -14.39148 -170.41632 31996 ft 513 kts 281°
2026-04-26 14:30 -14.37694 -170.48848 31994 ft 513 kts 281°
2026-04-26 14:31 -14.36239 -170.56059 31997 ft 513 kts 281°
2026-04-26 14:31 -14.34781 -170.63275 32000 ft 513 kts 281°
2026-04-26 14:32 -14.33097 -170.70444 31995 ft 514 kts 286°
2026-04-26 14:32 -14.30715 -170.77404 31999 ft 514 kts 291°
2026-04-26 14:33 -14.28049 -170.84238 31996 ft 513 kts 291°
2026-04-26 14:33 -14.25375 -170.91078 32032 ft 516 kts 291°
2026-04-26 14:33 -14.24035 -170.94518 32308 ft 516 kts 291°
2026-04-26 14:34 -14.22701 -170.97944 32707 ft 513 kts 291°
2026-04-26 14:34 -14.21383 -171.01351 33095 ft 511 kts 291°
2026-04-26 14:34 -14.20073 -171.04756 33441 ft 510 kts 291°
2026-04-26 14:34 -14.18768 -171.08153 33756 ft 509 kts 291°
2026-04-26 14:35 -14.17465 -171.11543 33988 ft 508 kts 291°
2026-04-26 14:35 -14.14856 -171.18322 33992 ft 508 kts 291°
2026-04-26 14:36 -14.12262 -171.25051 33998 ft 508 kts 291°
2026-04-26 14:36 -14.09653 -171.31816 33998 ft 508 kts 291°
2026-04-26 14:37 -14.07019 -171.38568 33998 ft 507 kts 292°
2026-04-26 14:37 -14.04347 -171.45294 33997 ft 507 kts 292°
2026-04-26 14:38 -14.01674 -171.52019 33997 ft 507 kts 292°
2026-04-26 14:38 -13.99004 -171.58743 33998 ft 507 kts 292°
2026-04-26 14:39 -13.96332 -171.65471 33991 ft 507 kts 292°
2026-04-26 14:39 -13.93659 -171.72196 33989 ft 507 kts 292°
2026-04-26 14:40 -13.90984 -171.78920 33989 ft 507 kts 292°
2026-04-26 14:40 -13.88308 -171.85645 33987 ft 507 kts 292°
2026-04-26 14:41 -13.85632 -171.92359 33989 ft 507 kts 292°
2026-04-26 14:41 -13.82808 -171.99011 33989 ft 506 kts 296°
2026-04-26 14:42 -13.79402 -172.05356 33989 ft 506 kts 301°
2026-04-26 14:42 -13.75808 -172.11592 33989 ft 506 kts 301°
2026-04-26 14:43 -13.72213 -172.17827 33988 ft 506 kts 301°
2026-04-26 14:43 -13.68625 -172.24060 33988 ft 506 kts 301°
2026-04-26 14:44 -13.65034 -172.30300 33987 ft 506 kts 301°
2026-04-26 14:44 -13.61438 -172.36545 33989 ft 507 kts 301°
2026-04-26 14:45 -13.57841 -172.42784 33989 ft 507 kts 301°
2026-04-26 14:45 -13.54221 -172.49009 33988 ft 507 kts 301°
2026-04-26 14:46 -13.50608 -172.55189 33987 ft 507 kts 301°
2026-04-26 14:46 -13.46974 -172.61408 33989 ft 507 kts 301°
2026-04-26 14:47 -13.43337 -172.67631 33989 ft 508 kts 301°
2026-04-26 14:47 -13.39697 -172.73855 33989 ft 508 kts 302°
2026-04-26 14:48 -13.36053 -172.80083 33990 ft 507 kts 302°
2026-04-26 14:48 -13.32408 -172.86308 33988 ft 507 kts 302°
2026-04-26 14:49 -13.28763 -172.92529 33992 ft 508 kts 302°
2026-04-26 14:49 -13.25114 -172.98751 33997 ft 508 kts 302°
2026-04-26 14:50 -13.21464 -173.04972 33997 ft 508 kts 302°
2026-04-26 14:50 -13.17808 -173.11197 33998 ft 508 kts 302°
2026-04-26 14:51 -13.14154 -173.17415 33999 ft 508 kts 302°
2026-04-26 14:51 -13.10497 -173.23634 33998 ft 509 kts 302°
2026-04-26 14:52 -13.06835 -173.29856 33998 ft 509 kts 302°
2026-04-26 14:52 -13.03170 -173.36081 33999 ft 509 kts 302°
2026-04-26 14:53 -12.99508 -173.42295 33997 ft 509 kts 302°
2026-04-26 14:53 -12.95839 -173.48517 33998 ft 509 kts 302°
2026-04-26 14:54 -12.92167 -173.54739 33998 ft 509 kts 302°
2026-04-26 14:54 -12.88490 -173.60965 33999 ft 509 kts 302°
2026-04-26 14:55 -12.84845 -173.67135 33998 ft 510 kts 302°
2026-04-26 14:55 -12.81159 -173.73369 33998 ft 510 kts 302°
2026-04-26 14:56 -12.77478 -173.79588 33998 ft 510 kts 302°
2026-04-26 14:56 -12.73793 -173.85813 33999 ft 511 kts 302°
2026-04-26 14:57 -12.70101 -173.92043 33998 ft 511 kts 302°
2026-04-26 14:57 -12.66407 -173.98273 33997 ft 511 kts 302°
2026-04-26 14:58 -12.62716 -174.04496 33991 ft 511 kts 302°
2026-04-26 14:58 -12.59017 -174.10726 33991 ft 511 kts 302°
2026-04-26 14:59 -12.55318 -174.16953 33988 ft 511 kts 302°
2026-04-26 14:59 -12.51619 -174.23176 33989 ft 511 kts 303°
2026-04-26 15:00 -12.47916 -174.29406 33988 ft 512 kts 302°
2026-04-26 15:00 -12.44166 -174.35764 33993 ft 512 kts 302°
2026-04-26 15:01 -12.40485 -174.42013 33996 ft 512 kts 302°
2026-04-26 15:01 -12.36803 -174.48256 33998 ft 512 kts 302°
2026-04-26 15:02 -12.33125 -174.54491 33998 ft 511 kts 302°
2026-04-26 15:02 -12.29469 -174.60682 33998 ft 511 kts 302°
2026-04-26 15:03 -12.25788 -174.66913 33997 ft 511 kts 302°
2026-04-26 15:03 -12.22104 -174.73143 33997 ft 511 kts 302°
2026-04-26 15:04 -12.18416 -174.79376 33998 ft 511 kts 302°
2026-04-26 15:04 -12.14732 -174.85598 33998 ft 511 kts 302°
2026-04-26 15:05 -12.11044 -174.91822 33998 ft 511 kts 302°
2026-04-26 15:05 -12.07359 -174.98038 33997 ft 511 kts 302°
2026-04-26 15:06 -12.03673 -175.04253 33998 ft 511 kts 302°
2026-04-26 15:06 -11.99987 -175.10462 33998 ft 511 kts 302°
2026-04-26 15:07 -11.94452 -175.19779 33992 ft 511 kts 302°
2026-04-26 15:07 -11.90762 -175.25986 33991 ft 511 kts 302°
2026-04-26 15:08 -11.87070 -175.32190 33989 ft 511 kts 302°
2026-04-26 15:08 -11.83377 -175.38393 33989 ft 510 kts 302°
2026-04-26 15:09 -11.79692 -175.44580 33990 ft 510 kts 302°
2026-04-26 15:09 -11.76003 -175.50769 33988 ft 510 kts 302°
2026-04-26 15:10 -11.72933 -175.55916 33992 ft 510 kts 302°
2026-04-26 15:10 -11.68641 -175.63108 33998 ft 510 kts 302°
2026-04-26 15:11 -11.64946 -175.69296 33998 ft 510 kts 302°
2026-04-26 15:11 -11.61252 -175.75478 33999 ft 510 kts 302°
2026-04-26 15:12 -11.57554 -175.81662 33999 ft 510 kts 302°
2026-04-26 15:12 -11.53857 -175.87841 33998 ft 510 kts 302°
2026-04-26 15:13 -11.50157 -175.94021 33998 ft 510 kts 302°
2026-04-26 15:13 -11.46457 -176.00197 33998 ft 510 kts 302°
2026-04-26 15:14 -11.42755 -176.06370 33998 ft 510 kts 302°
2026-04-26 15:14 -11.39051 -176.12546 33998 ft 510 kts 302°
2026-04-26 15:15 -11.35970 -176.17681 33998 ft 510 kts 302°
2026-04-26 15:15 -11.32260 -176.23860 33998 ft 510 kts 302°
2026-04-26 15:16 -11.27946 -176.31039 33998 ft 510 kts 302°
2026-04-26 15:16 -11.24834 -176.36216 33997 ft 510 kts 302°
2026-04-26 15:17 -11.21670 -176.41476 33998 ft 511 kts 302°
2026-04-26 15:17 -11.17322 -176.48700 33997 ft 511 kts 302°
2026-04-26 15:18 -11.13605 -176.54871 33998 ft 511 kts 302°
2026-04-26 15:18 -11.09909 -176.61004 33998 ft 511 kts 302°
2026-04-26 15:19 -11.06188 -176.67175 33995 ft 511 kts 302°
2026-04-26 15:19 -11.02467 -176.73343 33998 ft 511 kts 302°
2026-04-26 15:20 -10.98742 -176.79514 33998 ft 512 kts 302°
2026-04-26 15:20 -10.95010 -176.85693 33997 ft 512 kts 302°
2026-04-26 15:21 -10.91275 -176.91871 33997 ft 512 kts 302°
2026-04-26 15:21 -10.87537 -176.98052 33998 ft 512 kts 302°
2026-04-26 15:22 -10.83801 -177.04227 33998 ft 512 kts 302°
2026-04-26 15:22 -10.80066 -177.10396 33999 ft 512 kts 302°
2026-04-26 15:23 -10.76323 -177.16575 33998 ft 512 kts 302°
2026-04-26 15:23 -10.72580 -177.22749 33998 ft 512 kts 302°
2026-04-26 15:24 -10.68837 -177.28922 33999 ft 512 kts 302°
2026-04-26 15:24 -10.65120 -177.35047 33998 ft 512 kts 302°
2026-04-26 15:25 -10.61978 -177.40222 33995 ft 513 kts 302°
2026-04-26 15:25 -10.57611 -177.47409 33993 ft 513 kts 302°
2026-04-26 15:26 -10.53854 -177.53590 33990 ft 513 kts 302°
2026-04-26 15:26 -10.50095 -177.59771 33988 ft 513 kts 302°
2026-04-26 15:27 -10.46335 -177.65951 33990 ft 514 kts 302°
2026-04-26 15:27 -10.42566 -177.72139 33990 ft 514 kts 302°
2026-04-26 15:28 -10.38798 -177.78324 33989 ft 514 kts 302°
2026-04-26 15:28 -10.35023 -177.84517 33989 ft 514 kts 302°
2026-04-26 15:29 -10.31252 -177.90701 33986 ft 515 kts 302°
2026-04-26 15:30 -10.23691 -178.03087 33989 ft 515 kts 303°
2026-04-26 15:30 -10.19909 -178.09278 33987 ft 515 kts 303°
2026-04-26 15:31 -10.14256 -178.18525 33990 ft 515 kts 303°
2026-04-26 15:32 -10.09190 -178.26805 33990 ft 515 kts 303°
2026-04-26 15:32 -10.04788 -178.33994 33990 ft 515 kts 303°
2026-04-26 15:33 -10.00999 -178.40181 33989 ft 515 kts 303°
2026-04-26 15:33 -9.97205 -178.46370 33989 ft 515 kts 303°
2026-04-26 15:34 -9.93415 -178.52551 33988 ft 515 kts 303°
2026-04-26 15:34 -9.89650 -178.58688 33990 ft 515 kts 303°
2026-04-26 15:35 -9.85853 -178.64872 33988 ft 515 kts 303°
2026-04-26 15:35 -9.82060 -178.71048 33989 ft 515 kts 303°
2026-04-26 15:36 -9.78244 -178.77258 33989 ft 516 kts 303°
2026-04-26 15:36 -9.74447 -178.83433 33989 ft 516 kts 303°
2026-04-26 15:37 -9.70648 -178.89610 33989 ft 516 kts 303°
2026-04-26 15:37 -9.66844 -178.95791 33987 ft 516 kts 303°
2026-04-26 15:38 -9.63040 -179.01969 33988 ft 516 kts 303°
2026-04-26 15:38 -9.59235 -179.08144 33990 ft 516 kts 303°
2026-04-26 15:39 -9.55459 -179.14269 33989 ft 516 kts 303°
2026-04-26 15:39 -9.52270 -179.19440 33990 ft 516 kts 303°
2026-04-26 15:40 -9.47847 -179.26608 33989 ft 516 kts 303°
2026-04-26 15:40 -9.44042 -179.32772 33988 ft 516 kts 303°
2026-04-26 15:41 -9.40228 -179.38946 33989 ft 516 kts 303°
2026-04-26 15:41 -9.36417 -179.45113 33988 ft 516 kts 303°
2026-04-26 15:42 -9.32607 -179.51275 33989 ft 516 kts 303°
2026-04-26 15:42 -9.28795 -179.57437 33988 ft 516 kts 303°
2026-04-26 15:43 -9.24978 -179.63605 33989 ft 516 kts 303°
2026-04-26 15:44 -9.19255 -179.72846 33989 ft 516 kts 303°
2026-04-26 15:44 -9.13559 -179.82036 33987 ft 516 kts 303°
2026-04-26 15:45 -9.07833 -179.91269 33988 ft 516 kts 303°
2026-04-26 15:46 -9.02156 179.99584 33989 ft 516 kts 303°
2026-04-26 15:46 -8.99618 179.95496 33965 ft 516 kts 303°
2026-04-26 15:47 -8.93267 179.85274 33917 ft 516 kts 303°
2026-04-26 15:48 -8.89442 179.79122 33916 ft 516 kts 303°
2026-04-26 15:48 -8.85616 179.72969 33913 ft 517 kts 303°
2026-04-26 15:49 -8.81780 179.66805 33916 ft 517 kts 303°
2026-04-26 15:49 -8.77948 179.60650 33915 ft 517 kts 303°
2026-04-26 15:50 -8.74115 179.54495 33913 ft 517 kts 303°
2026-04-26 15:50 -8.70281 179.48341 33913 ft 517 kts 303°
2026-04-26 15:51 -8.66442 179.42183 33915 ft 517 kts 303°
2026-04-26 15:51 -8.62606 179.36032 33913 ft 517 kts 303°
2026-04-26 15:52 -8.58770 179.29881 33916 ft 517 kts 303°
2026-04-26 15:52 -8.54930 179.23727 33916 ft 517 kts 303°
2026-04-26 15:53 -8.51090 179.17578 33915 ft 517 kts 303°
2026-04-26 15:53 -8.47250 179.11431 33915 ft 517 kts 303°
2026-04-26 15:54 -8.43412 179.05283 33915 ft 517 kts 303°
2026-04-26 15:54 -8.39573 178.99138 33916 ft 516 kts 303°
2026-04-26 15:55 -8.35739 178.93002 33916 ft 516 kts 303°
2026-04-26 15:55 -8.31931 178.86908 33913 ft 516 kts 303°